Regional Weather Roundup
Issued by NWS Grand Forks, ND

Home | Current Version | Previous Version | Graphics & Text | Print | Product List | Glossary On
Versions: 1 2 3 4 5 6 7 8 9 10 11 12 13 14 15 16 17 18 19 20 21 22 23 24 25 26 27 28 29 30 31 32 33 34 35 36 37 38 39 40 41 42 43 44 45 46 47 48 49 50
000
ASUS43 KFGF 281210
RWRFGF
PRAIRIE TO PINES  WEATHER ROUNDUP
NATIONAL WEATHER SERVICE EASTERN NORTH DAKOTA/GRAND FORKS ND
700 AM CDT MON JUL 28 2014

 **SATELLITE DATA USED TO AUGMENT SKY COVER AT AUTOMATED STATIONS**
 *****  WEATHER ACROSS EASTERN NORTH DAKOTA  *****

CITY           SKY/WX    TMP DP  RH WIND       PRES   REMARKS
GRAND FORKS    CLOUDY    59  55  87 NW5       30.26R
6HR MIN TEMP:  59; 6HR MAX TEMP:  61;

GRAND FRKS AFB CLOUDY    59  57  92 NW5       30.28R
GRAND FRKS NWS   N/A     59 N/A N/A NW5         N/A
DEVILS LAKE    CLEAR     54  48  82 CALM      30.29S
6HR MIN TEMP:  52; 6HR MAX TEMP:  57;

FARGO          CLOUDY    60  55  83 NW7       30.26R
WAHPETON ARPT  CLOUDY    59  54  82 NW6       30.26S
$$

 ***** WEATHER ACROSS CENTRAL AND WESTERN NORTH DAKOTA  *****

CITY           SKY/WX    TMP DP  RH WIND       PRES   REMARKS
BISMARCK       CLEAR     44  44 100 CALM      30.35S
6HR MIN TEMP:  44; 6HR MAX TEMP:  56;

MINOT          PTCLDY    51  49  92 CALM      30.32R
6HR MIN TEMP:  51; 6HR MAX TEMP:  57;

JAMESTOWN      CLOUDY    56  53  90 NW6       30.30R
6HR MIN TEMP:  56; 6HR MAX TEMP:  60;

MINOT AFB      PTCLDY    51  50  99 W5        30.32R
GARRISON         N/A     49  47  93 CALM      30.33S
WILLISTON      PTCLDY    53  50  89 CALM      30.32S
6HR MIN TEMP:  50; 6HR MAX TEMP:  56;

DICKINSON      CLEAR     49  46  90 S5        30.33F
6HR MIN TEMP:  48; 6HR MAX TEMP:  53;

HETTINGER      FOG       45  43  93 CALM      30.36S VSB 1
6HR MIN TEMP:  43; 6HR MAX TEMP:  55;

$$

 *****  OTHER AIRPORT OBSERVATIONS IN OUR AREA  *****

CITY           SKY/WX    TMP DP  RH WIND       PRES   REMARKS
WALHALLA         N/A     54  54 100 W5          N/A
GRAFTON AIRPOR CLOUDY    57  55  94 NW6       30.26S
VALLEY CITY AR CLOUDY    57  57 100 NW9       30.30R
CANDO          FAIR      50  48  93 CALM      30.32R
CAVALIER APRT  FAIR      55  52  88 NW6       30.27S
GWINNER        CLOUDY    61  57  88 NW7       30.30R
SHEYENNE NWR     N/A     59  55  87 NW3       29.95S
ROLLA          FAIR      48  48 100 W6        30.33R
 ***** THE ABOVE OBSERVATIONS ARE NON NWS ARE NOT QUALITY
       CONTROLLED AND MAY MIS-REPORT RAIN FOR SNOW...
$$

  *****  WEATHER ACROSS NORTHERN MINNESOTA  *****

CITY           SKY/WX    TMP DP  RH WIND       PRES   REMARKS
FLAG ISLAND    SUNNY     57  55  94 NW8       30.21R
WARROAD        CLEAR     55  52  88 W5        30.24R
ROSEAU         PTCLDY    55  52  88 W6        30.24R
HALLOCK        MOCLDY    57  55  94 NW5       30.26R
THF RVR FALLS  CLOUDY    59  55  88 NW7       30.25S
6HR MIN TEMP:  57; 6HR MAX TEMP:  61;

BAUDETTE       SUNNY     57  55  93 W5        30.22S
6HR MIN TEMP:  54; 6HR MAX TEMP:  58;

WASKISH        SUNNY     55  55 100 CALM      30.22R FOG
CROOKSTON      CLOUDY    57  55  94 NW5       30.27R
$$
  *****  WEATHER ACROSS CENTRAL AND WEST MINNESOTA  *****

CITY           SKY/WX    TMP DP  RH WIND       PRES   REMARKS
FOSSTON        CLOUDY    57  54  88 CALM      30.25S
BEMIDJI        MOCLDY    57  55  91 W6        30.23R
PARK RAPIDS    CLOUDY    59  55  87 NW6       30.23R
6HR MIN TEMP:  58; 6HR MAX TEMP:  61;

ELBOW LAKE     CLOUDY    59  58  96 NW6       30.25R
WADENA         CLOUDY    57  55  94 NW6       30.23S
DETROIT LAKES  MOCLDY    59  57  94 NW5       30.26S
MOORHEAD       CLOUDY    61  59  94 N6        30.27R
FERGUS FALLS   CLOUDY    59  55  88 N7        30.25S
MORRIS MN      CLOUDY    61  59  94 NW6       30.24R
STAPLES        CLOUDY    57  55  94 NW3       30.23R
$$
  *****  WEATHER ELSEWHERE ACROSS MINNESOTA  *****

CITY           SKY/WX    TMP DP  RH WIND       PRES   REMARKS
DULUTH         CLOUDY    58  53  84 NW5       30.17R
6HR MIN TEMP:  56; 6HR MAX TEMP:  58;

INTRNTL FALLS  SUNNY     52  50  93 W3        30.19R
6HR MIN TEMP:  47; 6HR MAX TEMP:  52;

ELY            PTSUNNY   54  52  94 W5        30.16S
CLOQUET        CLOUDY    55  54  94 W3        30.18S
WHEATON        NOT AVBL
BRAINERD       CLOUDY    61  57  87 NW6       30.22R
6HR MIN TEMP:  61; 6HR MAX TEMP:  63;

HIBBING        PTSUNNY   58  53  84 CALM      30.19R
6HR MIN TEMP:  55; 6HR MAX TEMP:  58;

ALEXANDRIA     CLOUDY    62  58  86 N6        30.25S
6HR MIN TEMP:  62; 6HR MAX TEMP:  62;

SAINT CLOUD    CLOUDY    63  58  83 NW6       30.21R
6HR MIN TEMP:  63; 6HR MAX TEMP:  64;

MINNEAPOLIS    CLOUDY    64  58  80 N5        30.19R
6HR MIN TEMP:  63; 6HR MAX TEMP:  65;

$$

  *****  WEATHER ACROSS SOUTH DAKOTA  *****

CITY           SKY/WX    TMP DP  RH WIND       PRES   REMARKS
SIOUX FALLS    CLOUDY    60  57  89 NW7       30.26S
6HR MIN TEMP:  56; 6HR MAX TEMP:  60;

BROOKINGS      NOT AVBL
WATERTOWN      CLOUDY    59  56  89 N8        30.27R
6HR MIN TEMP:  58; 6HR MAX TEMP:  60;

HURON          CLEAR     50  48  93 NW5       30.29S
6HR MIN TEMP:  48; 6HR MAX TEMP:  53;

SISSETON         N/A     60  58  92 N9        30.26R
ABERDEEN       MOCLDY    55  53  93 N6        30.30R
6HR MIN TEMP:  53; 6HR MAX TEMP:  56;

MITCHELL       CLEAR     54  52  93 NW7       30.30R
PIERRE         CLEAR     54  52  93 W3        30.32R
6HR MIN TEMP:  51; 6HR MAX TEMP:  59;

MOBRIDGE       CLEAR     51  50  96 N6        30.32R
RAPID CITY     MOCLDY    54  51  90 SE3       30.35S
6HR MIN TEMP:  50; 6HR MAX TEMP:  58;

$$

  *****  SOME WEATHER IN NEARBY STATES *****

CITY           SKY/WX    TMP DP  RH WIND       PRES   REMARKS
GLASGOW MT     CLEAR     55  50  83 E10       30.26S
6HR MIN TEMP:  54; 6HR MAX TEMP:  63;

GREAT FALLS MT PTCLDY    58  41  53 SW8       30.22S
6HR MIN TEMP:  56; 6HR MAX TEMP:  71;

CHEYENNE WY    CLEAR     56  53  90 W10       30.40S
6HR MIN TEMP:  54; 6HR MAX TEMP:  64;

SCOTTSBLUFF NE CLEAR     58  50  75 E7        30.32S
6HR MIN TEMP:  58; 6HR MAX TEMP:  67;

OMAHA NE       PTCLDY    58  55  90 N5        30.23R
6HR MIN TEMP:  58; 6HR MAX TEMP:  64;

DES MOINES IA  PTCLDY    61  58  90 NW7       30.17R
6HR MIN TEMP:  61; 6HR MAX TEMP:  66;

DAVENPORT IA   SUNNY     58  54  86 N10       30.11R
6HR MIN TEMP:  57; 6HR MAX TEMP:  63;

CHICAGO IL     MOSUNNY   60  49  66 N16       30.01R
6HR MIN TEMP:  59; 6HR MAX TEMP:  66;

EAU CLAIRE WI  CLOUDY    58  56  93 CALM      30.16R
6HR MIN TEMP:  56; 6HR MAX TEMP:  59;

LA CROSSE WI   CLOUDY    59  54  83 N6        30.15R
6HR MIN TEMP:  55; 6HR MAX TEMP:  60;

$$

  *****  SOME NATIONAL WEATHER *****

CITY           SKY/WX    TMP DP  RH WIND       PRES   REMARKS
LA GUARDIA NY  CLOUDY    72  67  84 S12       29.55S
6HR MIN TEMP:  70; 6HR MAX TEMP:  76; 6HR PCP:  0.19;

RALEIGH NC     MOSUNNY   75  64  68 W6        29.78R
6HR MIN TEMP:  74; 6HR MAX TEMP:  82; 6HR PCP: TRACE;

ATLANTA GA     PTSUNNY   79  73  82 W12       29.94R
6HR MIN TEMP:  77; 6HR MAX TEMP:  80; 6HR PCP: TRACE;

NEW ORLEANS LA PTCLDY    80  76  87 W5        30.08R
6HR MIN TEMP:  79; 6HR MAX TEMP:  81;

OKLAHOMA CITY  MOCLDY    74  62  66 NE12      30.19R
6HR MIN TEMP:  72; 6HR MAX TEMP:  78;

ALBUQUERQUE NM CLOUDY    69  55  60 N5        30.36S
6HR MIN TEMP:  69; 6HR MAX TEMP:  78;

SALT LAKE CITY MOCLDY    80  47  31 VRB5      30.16R
6HR MIN TEMP:  77; 6HR MAX TEMP:  85;

LOS ANGELES CA CLOUDY    68  64  87 NW3       30.04S
6HR MIN TEMP:  68; 6HR MAX TEMP:  69;

BOISE ID       PTCLDY    71  42  35 CALM      30.03S


USA.gov is the U.S. government's official web portal to all federal, state and local government web resources and services.